Location: Anciles
(42.5833°N, 0.5167°E)
Time: 13:32:21
(UTC+00:00)

Cosmos 2266 Rocket - Pass Details

Date: 10 December 2019
Orbit: 933 x 1009 km, 82.9° (Epoch: 18 January)

Event Time Altitude Azimuth Distance (km) Brightness Sun altitude
Rises 19:20:14 0° 190° (S) 3,722 7.2 -31.5°
Reaches altitude 10° 19:22:46 10° 191° (S) 2,778 6.5 -31.9°
Enters shadow 19:27:44 56° 206° (SSW) 1,187 4.4 -32.8°
